CST,Max TemperatureF,Mean TemperatureF,Min TemperatureF,Max Dew PointF,MeanDew PointF,Min DewpointF,Max Humidity, Mean Humidity, Min Humidity, Max Sea Level PressureIn, Mean Sea Level PressureIn, Min Sea Level PressureIn, Max VisibilityMiles, Mean VisibilityMiles, Min VisibilityMiles, Max Wind SpeedMPH, Mean Wind SpeedMPH, Max Gust SpeedMPH,PrecipitationIn, CloudCover, Events, WindDirDegrees
2013-1-1,50,46,41,48,44,34,94,89,62,30.08,30.02,29.95,10,5,2,12,0,24,1.50,8,Rain,358
2013-1-2,41,38,35,37,33,32,87,83,75,30.18,30.12,30.03,10,9,5,10,4,,0.00,8,,353
2013-1-3,42,34,26,32,29,23,93,77,49,30.38,30.26,30.15,10,8,5,9,2,,0.00,3,,336
2013-1-4,46,34,23,28,22,12,93,66,25,30.43,30.38,30.33,10,9,5,12,1,,0.00,0,,359
2013-1-5,50,37,24,36,26,16,93,71,26,30.40,30.33,30.25,10,10,3,5,0,,0.05,3,Rain,240
2013-1-6,46,38,30,37,34,28,93,82,57,30.31,30.23,30.18,10,7,2,9,1,16,0.04,5,Rain,270
2013-1-7,51,38,26,30,27,21,93,73,32,30.37,30.31,30.29,10,9,5,9,1,,0.00,0,,83
2013-1-8,55,47,39,43,34,28,76,60,47,30.36,30.30,30.26,10,10,10,8,2,16,0.00,2,,108
2013-1-9,59,54,50,52,48,41,88,77,67,30.41,30.36,30.30,10,9,4,9,3,,0.12,7,Rain,76
2013-1-10,64,58,53,59,54,50,88,81,77,30.39,30.28,30.09,10,9,4,20,6,30,0.01,8,Rain,100
2013-1-11,64,62,60,61,59,55,94,86,73,30.16,30.11,30.08,10,7,1,10,6,20,0.26,8,Rain,202
2013-1-12,71,66,62,63,59,55,94,79,64,30.12,30.06,29.99,10,9,2,10,4,17,0.02,7,Rain,190
2013-1-13,68,59,46,59,57,43,94,80,68,30.10,30.00,29.95,10,9,2,12,5,21,1.29,7,Rain,194
2013-1-14,44,40,37,43,39,36,93,90,87,30.23,30.14,30.09,10,6,1,9,4,16,2.25,8,Rain,25
2013-1-15,46,44,41,45,42,37,100,93,87,30.13,30.04,29.93,10,5,1,7,2,,1.29,8,Rain,46
2013-1-16,48,45,42,46,42,37,100,91,81,30.06,30.00,29.92,10,9,4,9,2,,0.20,8,Rain,351
2013-1-17,46,39,32,41,36,28,93,85,70,30.36,29.96,29.78,10,8,2,21,8,28,0.23,6,Rain-Snow,15
2013-1-18,51,40,28,32,27,18,100,76,28,30.55,30.45,30.36,10,8,3,5,0,,0.00,0,,30
2013-1-19,53,40,26,32,27,21,93,69,28,30.42,30.32,30.22,10,10,7,10,2,16,0.00,0,,218
2013-1-20,59,44,28,36,30,27,100,74,31,30.23,30.18,30.13,10,10,10,9,1,,0.00,0,,313
2013-1-21,48,38,28,34,22,12,100,62,27,30.23,30.17,30.10,10,10,10,12,3,18,0.00,0,,336
2013-1-22,41,32,24,18,12,5,69,44,28,30.36,30.30,30.23,10,10,10,13,3,18,0.00,2,,345
2013-1-23,53,42,32,36,25,16,64,51,36,30.38,30.27,30.18,10,10,10,15,3,20,0.00,6,,236
2013-1-24,48,40,32,37,20,9,71,45,20,30.35,30.28,30.18,10,10,10,13,6,18,0.00,3,,8
2013-1-25,41,37,33,37,26,1,93,64,22,30.30,30.18,30.09,10,8,2,16,4,25,0.06,8,Rain,130
2013-1-26,53,43,33,37,32,25,93,74,35,30.30,30.26,30.17,10,10,3,10,3,,0.00,2,,3
2013-1-27,50,44,37,34,32,28,81,62,50,30.38,30.34,30.29,10,10,7,9,4,,0.00,7,,65
2013-1-28,59,52,44,48,39,28,93,67,50,30.36,30.29,30.22,10,9,3,12,4,20,0.00,5,,166
2013-1-29,68,57,46,57,52,43,88,75,64,30.22,30.05,29.84,10,8,3,15,4,24,0.00,7,Rain,162
2013-1-30,68,52,37,63,50,25,94,83,60,29.91,29.69,29.58,10,8,1,25,10,40,2.20,8,Rain-Thunderstorm,221
2013-1-31,46,39,32,30,24,19,87,61,37,30.15,30.07,29.92,10,10,10,18,9,32,0.00,2,,273